Regional Weather Roundup
Issued by NWS Grand Forks, ND

Home | Current Version | Previous Version | Text Only | Print | Product List | Glossary Off
Versions: 1 2 3 4 5 6 7 8 9 10 11 12 13 14 15 16 17 18 19 20 21 22 23 24 25 26 27 28 29 30 31 32 33 34 35 36 37 38 39 40 41 42 43 44 45 46 47 48 49 50

000
ASUS43 KFGF 281831
RWRFGF
PRAIRIE TO PINES  WEATHER ROUNDUP
NATIONAL WEATHER SERVICE EASTERN NORTH DAKOTA/GRAND FORKS ND
1200 PM CST FRI NOV 28 2014

 **SATELLITE DATA USED TO AUGMENT SKY COVER AT AUTOMATED STATIONS**
 *****  WEATHER ACROSS EASTERN NORTH DAKOTA  *****

CITY           SKY/WX    TMP DP  RH WIND       PRES   REMARKS
GRAND FORKS    CLOUDY    14   9  79 SE6       29.89F WCI   5
6HR MIN TEMP:  12; 6HR MAX TEMP:  14; 6HR PCP:  0.02;

GRAND FRKS AFB CLOUDY    14   9  79 SE7       29.88S WCI   4
GRAND FRKS NWS   N/A     14 N/A N/A SE9         N/A  WCI   2
DEVILS LAKE    CLOUDY    12   1  62 SE18      29.76F WCI  -5
6HR MIN TEMP:   9; 6HR MAX TEMP:  12;

FARGO          CLOUDY    16   8  71 E9        29.87F WCI   4
WAHPETON ARPT  CLOUDY    18  12  79 SE10      29.84F WCI   6
$$

 ***** WEATHER ACROSS CENTRAL AND WESTERN NORTH DAKOTA  *****

CITY           SKY/WX    TMP DP  RH WIND       PRES   REMARKS
BISMARCK       PTSUNNY   17  11  77 E10       29.74F WCI   5
6HR MIN TEMP:  10; 6HR MAX TEMP:  17;

MINOT          LGT SNOW  11   5  77 E16       29.70F WCI  -6
6HR MIN TEMP:   8; 6HR MAX TEMP:  11; 6HR PCP:  0.01;

JAMESTOWN      PTSUNNY   12   6  77 E12       29.77F WCI  -2
6HR MIN TEMP:   7; 6HR MAX TEMP:  11; 6HR PCP:  0.01;

MINOT AFB      FLURRIES  10   7  85 SE16      29.70F WCI  -7
GARRISON         N/A     13   9  84 E14       29.69F WCI  -2
WILLISTON      CLOUDY    19  15  84 E9        29.59F WCI   8
6HR MIN TEMP:  15; 6HR MAX TEMP:  19;

DICKINSON      PTSUNNY   32  24  72 SE6       29.57F
6HR MIN TEMP:  17; 6HR MAX TEMP:  32;

HETTINGER      PTSUNNY   36  27  69 S5        29.61F
6HR MIN TEMP:  26; 6HR MAX TEMP:  36;

$$

 *****  OTHER AIRPORT OBSERVATIONS IN OUR AREA  *****

CITY           SKY/WX    TMP DP  RH WIND       PRES   REMARKS
WALHALLA         N/A     10  10 100 E7        29.91S WCI   0
GRAFTON AIRPOR FLURRIES  14   9  79 SE5       29.90F WCI   6
VALLEY CITY AR FLURRIES  10   9  92 E15       29.79F WCI  -6
CANDO          LGT SNOW  12   7  79 SE14      29.79F WCI  -3
CAVALIER APRT  CLOUDY    14   9  79 SE6       29.91S WCI   5
GWINNER        CLOUDY    16  10  79 E12       29.80F WCI   3
SHEYENNE NWR     N/A     14   9  79 SE8       29.95S WCI   3
ROLLA          LGT SNOW   9   5  85 SE16      29.76F WCI  -9
 ***** THE ABOVE OBSERVATIONS ARE NON NWS ARE NOT QUALITY
       CONTROLLED AND MAY MIS-REPORT RAIN FOR SNOW...
$$

  *****  WEATHER ACROSS NORTHERN MINNESOTA  *****

CITY           SKY/WX    TMP DP  RH WIND       PRES   REMARKS
FLAG ISLAND    PTSUNNY   10   0  61 E6        29.92F WCI   1
WARROAD        MOSUNNY   12   7  79 E9        29.91F WCI   0
ROSEAU         PTSUNNY   14   7  73 E12       29.90F WCI   0
HALLOCK        MOSUNNY   16   9  73 SE10      29.89F WCI   3
THF RVR FALLS  CLOUDY    12   9  85 E7        29.88F WCI   2
6HR MIN TEMP:  10; 6HR MAX TEMP:  12;

BAUDETTE       CLOUDY    11   4  73 E7        29.91F WCI   0
6HR MIN TEMP:   5; 6HR MAX TEMP:  11;

WASKISH        CLOUDY    14   9  79 CALM      29.91R
CROOKSTON      PTSUNNY   14   9  79 SE7       29.89F WCI   4
STEPHEN NDAWN    N/A     14   9  79 SE9         N/A  WCI   2
GREENBUSH NDAW   N/A     14   9  79 E8          N/A  WCI   3
$$
  *****  WEATHER ACROSS CENTRAL AND WEST MINNESOTA  *****

CITY           SKY/WX    TMP DP  RH WIND       PRES   REMARKS
FOSSTON        CLOUDY    12   7  79 E3        29.87F
BEMIDJI        FLURRIES  12   6  79 E7        29.87F WCI   1
PARK RAPIDS    CLOUDY    12   6  77 SE7       29.86F WCI   1
6HR MIN TEMP:   8; 6HR MAX TEMP:  12; 6HR PCP: TRACE;

ELBOW LAKE     CLOUDY    15  10  81 E10       29.83F FOG     WCI   2
WADENA         CLOUDY    12   7  79 E8        29.84F WCI   1
DETROIT LAKES  PTSUNNY   14  10  85 SE7       29.85F WCI   4
MOORHEAD       CLOUDY    16  10  79 E6        29.88F WCI   7
FERGUS FALLS   PTSUNNY   16   7  67 E7        29.86F WCI   6
MORRIS MN      PTSUNNY   18  12  79 SE12      29.82F WCI   5
STAPLES        CLOUDY    12   7  79 E7        29.85F WCI   2
$$
  *****  WEATHER ELSEWHERE ACROSS MINNESOTA  *****

CITY           SKY/WX    TMP DP  RH WIND       PRES   REMARKS
DULUTH         LGT SNOW  13   8  81 SE9       29.91F WCI   1
6HR MIN TEMP:   8; 6HR MAX TEMP:  12; 6HR PCP:  0.01;

INTRNTL FALLS  LGT SNOW  13   5  70 E5        29.95F WCI   5
6HR MIN TEMP:   5; 6HR MAX TEMP:  13; 6HR PCP: TRACE;

ELY            FLURRIES  16  10  79 SE3       29.92F
CLOQUET        LGT SNOW  12   9  85 SE3       29.91F
WHEATON        CLOUDY    14  10  85 SE14      29.84F WCI  -1
BRAINERD       CLOUDY    13   7  77 SE5       29.89F WCI   5
6HR MIN TEMP:   8; 6HR MAX TEMP:  12; 6HR PCP: TRACE;

HIBBING        CLOUDY    13   6  74 SE7       29.92F WCI   3
6HR MIN TEMP:   8; 6HR MAX TEMP:  14; 6HR PCP: TRACE;

ALEXANDRIA     MIX PCPN  13   9  84 E10       29.82F FOG     WCI   0
6HR MIN TEMP:   9; 6HR MAX TEMP:  13; 6HR PCP:  0.02;

SAINT CLOUD    MIX PCPN  17   9  70 SE10      29.87F WCI   5
6HR MIN TEMP:  11; 6HR MAX TEMP:  17;

MINNEAPOLIS    CLOUDY    18  11  74 SE8       29.94F WCI   8
6HR MIN TEMP:  12; 6HR MAX TEMP:  19;

$$

  *****  WEATHER ACROSS SOUTH DAKOTA  *****

CITY           SKY/WX    TMP DP  RH WIND       PRES   REMARKS
SIOUX FALLS    PTSUNNY   29  23  78 E10       29.73F WCI  20
6HR MIN TEMP:  19; 6HR MAX TEMP:  30;

BROOKINGS      NOT AVBL
WATERTOWN      CLOUDY    18  13  80 E7        29.74F WCI   9
6HR MIN TEMP:  14; 6HR MAX TEMP:  18;

HURON          MOSUNNY   32  22  66 E5        29.72F
6HR MIN TEMP:  20; 6HR MAX TEMP:  32;

SISSETON         N/A     14  10  84 SE8       29.82F WCI   3
ABERDEEN       PTSUNNY   20  14  77 NE8       29.76F WCI  10
6HR MIN TEMP:  13; 6HR MAX TEMP:  20;

MITCHELL       MOSUNNY   35  26  69 E10       29.71F
PIERRE         SUNNY     31  21  66 N5        29.68F
6HR MIN TEMP:  16; 6HR MAX TEMP:  31;

MOBRIDGE       MOSUNNY   26  19  74 SE9       29.67F WCI  17
RAPID CITY     PTSUNNY   55  35  47 CALM      29.67F
6HR MIN TEMP:  33; 6HR MAX TEMP:  55;

$$

  *****  SOME WEATHER IN NEARBY STATES *****

CITY           SKY/WX    TMP DP  RH WIND       PRES   REMARKS
GLASGOW MT     MOSUNNY   23  20  88 E16       29.47F FOG     WCI  10
6HR MIN TEMP:  18; 6HR MAX TEMP:  21;

GREAT FALLS MT SUNNY     54  34  46 SW33G41   29.45F
6HR MIN TEMP:  47; 6HR MAX TEMP:  54;

CHEYENNE WY    CLOUDY    56  11  16 W15G25    29.91F
6HR MIN TEMP:  45; 6HR MAX TEMP:  56;

SCOTTSBLUFF NE CLOUDY    62  26  25 NW7       29.80F
6HR MIN TEMP:  34; 6HR MAX TEMP:  63;

OMAHA NE       PTSUNNY   42  28  57 S13       29.81F
6HR MIN TEMP:  28; 6HR MAX TEMP:  42;

DES MOINES IA  PTSUNNY   37  26  64 S9        29.86F
6HR MIN TEMP:  20; 6HR MAX TEMP:  37;

DAVENPORT IA   NOT AVBL
CHICAGO IL     CLOUDY    27  16  63 SE16      30.10F WCI  15
6HR MIN TEMP:  20; 6HR MAX TEMP:  27; 6HR PCP: TRACE;

EAU CLAIRE WI  CLOUDY    18  11  74 SE6       29.97F WCI  10
6HR MIN TEMP:  11; 6HR MAX TEMP:  18;

LA CROSSE WI   SUNNY     25  14  63 S9        29.98F WCI  15
6HR MIN TEMP:  16; 6HR MAX TEMP:  25;

$$

  *****  SOME NATIONAL WEATHER *****

CITY           SKY/WX    TMP DP  RH WIND       PRES   REMARKS
LA GUARDIA NY  CLOUDY    36  21  54 NW16G25   30.15F
6HR MIN TEMP:  32; 6HR MAX TEMP:  37;

RALEIGH NC     SUNNY     42  19  39 NE6       30.30F
6HR MIN TEMP:  26; 6HR MAX TEMP:  43;

ATLANTA GA     SUNNY     46  19  34 NW9       30.35F
6HR MIN TEMP:  28; 6HR MAX TEMP:  46;

NEW ORLEANS LA MOSUNNY   58  38  47 VRB6      30.38F
6HR MIN TEMP:  43; 6HR MAX TEMP:  58;

OKLAHOMA CITY  MOSUNNY   62  36  37 S21G30    30.00F
6HR MIN TEMP:  38; 6HR MAX TEMP:  62;

ALBUQUERQUE NM MOSUNNY   51  21  30 CALM      30.26F
6HR MIN TEMP:  30; 6HR MAX TEMP:  51;

SALT LAKE CITY CLOUDY    57  19  22 SE12      29.98F
6HR MIN TEMP:  42; 6HR MAX TEMP:  57;

LOS ANGELES CA MOSUNNY   69  38  32 E3        30.01R
6HR MIN TEMP:  54; 6HR MAX TEMP:  69;




USA.gov is the U.S. government's official web portal to all federal, state and local government web resources and services.